Newport, AR

10:34 AM CDT on October 18, 2017 (GMT -0500)
Newport

Weather History for KM19 - October, 2012

Change the Weather History Date:

Monday, October 22, 2012

  Actual Average (KBVX) Record (KBVX)
Temperature  
Mean Temperature 70 °F -  
Max Temperature 81 °F 71 °F 87 °F (1953)
Min Temperature 59 °F 46 °F 23 °F (1952)
Cooling Degree Days 5    
Growing Degree Days 20 (Base 50)    
Moisture  
Dew Point 57 °F    
Average Humidity 69    
Maximum Humidity 86    
Minimum Humidity 42    
Precipitation  
Precipitation 0.00 in - - ()
Sea Level Pressure  
Sea Level Pressure 30.03 in    
Wind  
Wind Speed 13 mph (South)    
Max Wind Speed 24 mph    
Max Gust Speed 34 mph    
Visibility 10 miles    
Events      
Averages and records for this station are not official NWS values.
T = Trace of Precipitation, MM = Missing Value Source: NWS Daily Summary

Daily Weather History Graph

Daily Weather History Graph

Search for Another Location

Airport or City:

Trip Planner

Search our weather history database for the weather conditions in past years. The results will help you decide how hot, cold, wet, or windy it might be!

Date:

Astronomy

Oct. 22, 2012 Rise Set
Actual Time 7:17 AM CDT 6:19 PM CDT
Civil Twilight 6:51 AM CDT 6:45 PM CDT
Nautical Twilight 6:22 AM CDT 7:15 PM CDT
Astronomical Twilight 5:52 AM CDT 7:45 PM CDT
Moon 2:15 PM CDT (10/22) 12:19 AM CDT (10/22)
Length of Visible Light 11h 53m
Length of Day
11h 02m
First Quarter, 56% of the Moon is Illuminated
Oct 22
First Quarter
Oct 29
Full
Nov 6
Last Quarter
Nov 13
New
Nov 20
First Quarter

Hourly Weather History & Observations

Time (CDT) Temp. Heat Index Dew Point Humidity Pressure Visibility Wind Dir Wind Speed Gust Speed Precip Events Conditions
12:56 AM 63.0 °F - 52.9 °F 70% 30.00 in 10.0 mi South 8.1 mph - N/A   Clear
1:18 AM 62.6 °F - 53.6 °F 72% 30.00 in 10.0 mi South 10.4 mph - N/A   Scattered Clouds
1:56 AM 61.0 °F - 52.9 °F 75% 29.99 in 10.0 mi South 10.4 mph - N/A   Partly Cloudy
2:56 AM 61.0 °F - 52.9 °F 75% 30.00 in 10.0 mi South 10.4 mph - N/A   Clear
3:56 AM 59.9 °F - 52.9 °F 78% 30.00 in 10.0 mi South 10.4 mph - N/A   Clear
4:56 AM 59.0 °F - 54.0 °F 83% 30.01 in 10.0 mi SSE 9.2 mph - N/A   Clear
6:56 AM 59.0 °F - 54.9 °F 86% 30.04 in 10.0 mi South 11.5 mph - N/A   Clear
9:29 AM 66.2 °F - 57.2 °F 73% 30.08 in 10.0 mi South 17.3 mph - N/A   Mostly Cloudy
9:56 AM 66.9 °F - 57.9 °F 73% 30.09 in 10.0 mi South 16.1 mph 19.6 mph N/A   Overcast
10:56 AM 72.0 °F - 61.9 °F 70% 30.08 in 10.0 mi South 19.6 mph - N/A   Overcast
11:30 AM 73.4 °F - 62.6 °F 69% 30.08 in 10.0 mi SSW 18.4 mph - N/A   Scattered Clouds
11:56 AM 75.9 °F - 63.9 °F 66% 30.07 in 10.0 mi South 20.7 mph 26.5 mph N/A   Scattered Clouds
12:56 PM 77.9 °F - 64.9 °F 64% 30.04 in 10.0 mi SSW 24.2 mph 33.4 mph N/A   Scattered Clouds
1:16 PM 78.8 °F - 64.4 °F 61% 30.04 in 10.0 mi South 23.0 mph 32.2 mph N/A   Mostly Cloudy
1:23 PM 78.8 °F - 64.4 °F 61% 30.03 in 10.0 mi South 21.9 mph 34.5 mph N/A   Scattered Clouds
1:56 PM 79.9 °F - 63.0 °F 56% 30.02 in 10.0 mi South 20.7 mph 28.8 mph N/A   Scattered Clouds
2:56 PM 77.9 °F - 57.9 °F 50% 30.01 in 10.0 mi SSW 17.3 mph 24.2 mph N/A   Clear
3:56 PM 81.0 °F 80.8 °F 55.9 °F 42% 30.00 in 10.0 mi South 17.3 mph 24.2 mph N/A   Clear
4:56 PM 79.0 °F - 55.9 °F 45% 30.00 in 10.0 mi South 17.3 mph - N/A   Clear
6:56 PM 65.8 °F - 55.9 °F 70% 30.04 in 10.0 mi North - - N/A   Clear
7:56 PM 63.9 °F - 54.9 °F 72% 30.04 in 10.0 mi SSE 9.2 mph - N/A   Clear
8:56 PM 63.0 °F - 54.9 °F 75% 30.04 in 10.0 mi SSE 6.9 mph - N/A   Clear
9:56 PM 59.9 °F - 54.9 °F 83% 30.03 in 10.0 mi SE 9.2 mph - N/A   Clear
10:56 PM 61.9 °F - 54.0 °F 75% 30.01 in 10.0 mi SSE 9.2 mph - N/A   Clear
11:56 PM 61.0 °F - 52.9 °F 75% 30.01 in 10.0 mi South 9.2 mph - N/A   Clear